Presure
155 169 151 173 172 165 173 184 157 162 175 170 148 146 125 153 146 151 167 170 165 153 172 175 176 158 167 171 162 174 173 162 180 163 164 165 168 171 165 166 167 190 198 183
190 143 145 182 140 164 163 168 151 140 147 145 139 168 172 155 161 160 158 161 157 157 167 149 167 175 151 159 170 175 175 175 162 148 168 169 171 178 171 178 178 166 181 189
157 165 165 183 178 190 146 166 154 147 163 162 174 167 173 171 162 160 173 159 168 148 162 160 172 168 169 168 168 167 167 171 173 171 158 183 182 192 175 176 200 180 165 187
195 163 164 154 184 154 191 170 164 150 155 209 183 179 177 175 170 158 175 169 172 161 165 169 170 173 152 165 170 168 179 175 159 173 169 174 195 196 171 191 176 172 177 192
164 197 173 201 143 160 166 168 145 171 186 150 157 189 188 164 174 175 169 170 172 169 169 166 167 177 184 184 179 168 185 183 181 188 176 186 196 151 181 178 195 184 185 202
165 158 156 164 206 164 194 170 157 147 207 177 168 154 184 184 186 178 157 181 170 187 165 179 189 185 188 184 180 170 180 185 185 168 180 174 161 183 197 193 178 178 191 243
161 201 154 164 169 160 162 172 168 193 186 163 180 197 197 157 205 168 165 183 184 173 155 195 178 187 183 182 189 186 190 185 194 175 187 198 196 208 202 180 185 178 241 207
181 199 184 198 197 201 193 168 173 159 199 165 204 159 159 170 175 163 165 184 199 161 192 174 206 184 179 195 196 183 194 183 194 198 206 212 202 213 200 198 187 184 222 310
206 225 168 203 210 209 173 173 166 202 175 172 161 179 210 216 220 175 179 181 195 182 178 178 193 178 207 201 195 203 190 203 210 213 213 210 182 206 183 202 192 191 279 305
200 230 200 215 192 214 204 214 199 198 219 223 164 234 206 216 214 199 200 205 193 215 196 190 184 198 208 220 196 216 179 192 220 202 213 210 205 205 208 187 188 284 308 313
240 233 229 204 202 217 206 230 194 198 227 220 211 222 205 174 229 197 222 218 204 205 205 216 209 211 219 207 209 219 221 212 214 195 184 197 208 199 198 209 199 315 316 318
246 242 235 229 219 214 221 239 230 224 220 200 227 186 227 222 192 215 212 225 200 203 186 207 203 193 218 193 283 202 213 206 201 222 216 186 216 310 219 266 322 329 327 323
248 230 223 226 225 226 223 218 222 216 222 226 213 222 198 230 224 237 200 222 198 229 233 226 214 230 332 206 211 370 184 207 187 204 204 200 308 317 326 338 326 328 325 314
250 238 231 246 231 231 241 233 219 223 235 246 226 243 232 223 216 225 236 239 237 246 244 326 327 327 302 264 340 344 209 276 216 196 325 322 336 343 347 343 292 333 324 281
409 399 380 352 318 350 283 265 315 295 333 271 259 261 264 250 243 243 253 237 241 270 323 326 328 337 335 332 324 292 317 310 224 289 330 345 341 322 334 332 325 319 310 310
398 403 403 399 388 374 390 380 378 305 368 289 374 385 280 288 277 353 357 352 343 336 335 331 327 320 320 334 335 314 223 316 317 326 325 334 324 330 329 328 327 328 330 356
457 465 358 344 387 384 366 366 360 353 349 351 358 371 368 347 351 355 352 341 335 332 330 319 318 320 321 320 318 318 314 306 308 333 333 328 334 333 331 336 323 321 316 337
437 446 397 385 328 330 337 330 336 339 333 341 351 354 343 335 332 331 328 322 320 335 323 333 333 315 317 325 309 311 318 323 326 325 331 332 328 326 325 296 284 286 288 290
425 428 427 433 443 450 454 327 315 324 324 335 339 331 329 322 321 319 319 318 341 330 330 330 334 326 322 317 320 324 320 320 318 327 323 321 275 262 258 271 280 296 333 340
380 393 411 414 408 302 303 319 323 314 309 304 295 303 315 329 317 315 317 318 314 328 333 330 326 329 314 308 312 300 309 328 324 309 251 253 260 260 260 378 375 385 326 318
362 363 363 363 373 379 381 380 389 393 388 367 322 328 309 315 302 302 306 298 318 329 328 326 319 310 295 318 326 324 315 285 247 247 248 252 262 351 347 336 325 310 302 297
331 350 355 349 350 364 356 335 343 326 350 324 321 310 312 299 317 326 318 323 321 323 310 302 317 302 313 313 302 285 258 248 249 253 255 287 329 310 301 299 295 289 287 287
323 331 325 339 334 323 321 313 322 329 329 329 327 328 317 316 320 332 320 297 315 318 309 303 329 294 289 278 264 258 255 254 256 301 300 301 300 305 301 290 289 288 284 282
288 300 310 286 298 317 321 293 292 295 295 295 300 298 284 292 302 296 295 293 286 286 277 275 278 273 267 264 257 258 270 305 319 321 320 320 320 322 322 319 318 315 311 310
276 277 290 290 298 298 302 286 287 302 274 276 279 286 275 276 296 274 281 280 278 273 269 267 267 281 307 308 307 310 310 309 308 308 306 306 306 307 307 307 305 303 299 299
276 272 269 272 274 279 280 281 279 280 283 283 283 286 291 290 289 281 290 294 295 297 299 300 302 304 304 304 302 299 298 297 297 299 300 300 302 303 301 301 303 303 302 301
267 266 267 269 272 276 277 277 277 280 277 278 276 278 281 286 277 278 285 290 296 298 300 303 305 305 305 300 289 287 287 287 289 293 299 302 302 304 303 330 333 337 335 337
Wind_Speed
105 93 107 86 87 98 93 83 84 99 94 98 77 75 70 94 76 90 103 104 104 91 105 106 109 92 109 106 108 110 111 94 109 110 112 103 107 110 93 88 103 115 116 114
95 88 87 96 79 99 112 84 83 61 72 83 64 102 102 89 103 103 92 91 99 95 108 69 102 107 76 97 113 114 111 111 97 59 116 116 109 122 100 126 124 96 120 125
121 103 118 101 110 97 76 107 81 65 75 100 105 109 107 109 100 101 114 103 110 86 100 96 111 108 107 106 108 104 104 101 117 113 73 123 121 127 109 118 128 116 99 123
112 114 128 112 111 105 99 118 104 78 100 94 109 113 110 108 108 100 118 112 120 104 110 120 116 112 67 98 109 103 111 111 78 108 99 98 121 125 97 121 109 99 116 125
136 111 125 109 83 126 119 112 79 119 110 85 98 110 110 118 119 120 118 119 125 112 117 113 108 125 128 125 122 106 126 121 121 120 115 123 117 74 113 108 127 115 115 126
95 121 115 129 115 115 114 126 92 71 103 119 89 84 111 116 122 123 87 119 106 132 105 127 129 131 122 126 119 103 125 117 132 72 114 92 50 118 133 126 111 106 127 113
131 123 105 123 108 101 131 138 110 118 118 105 118 110 123 102 122 124 100 128 131 104 76 137 125 134 117 125 136 134 133 137 132 89 124 134 127 131 125 110 118 102 116 124
137 130 122 117 121 129 123 135 124 103 119 114 114 112 109 125 141 93 104 130 130 91 136 109 132 133 101 141 141 116 142 113 141 140 147 140 129 132 128 118 114 113 111 84
129 143 125 121 123 126 137 136 124 123 138 133 116 136 116 122 126 94 133 141 142 137 127 124 146 95 137 134 141 143 130 128 141 143 149 137 106 124 94 119 111 105 99 82
133 141 135 133 127 128 122 129 128 137 135 131 101 132 123 119 132 125 137 131 140 132 135 135 122 144 142 139 111 134 91 111 136 139 145 132 125 130 124 90 102 96 80 74
141 137 138 121 123 136 130 144 131 135 145 131 130 131 132 101 126 136 122 127 135 134 146 143 137 128 147 144 142 129 135 137 128 120 88 112 131 116 110 127 117 81 71 69
139 138 139 146 139 134 143 152 143 140 142 132 130 111 129 129 134 115 122 126 143 142 124 146 146 118 149 115 138 135 137 136 124 137 130 86 130 87 129 101 78 71 65 62
151 130 129 141 143 142 140 131 135 134 144 153 140 125 122 140 133 144 130 131 134 152 152 154 151 133 102 83 144 67 93 127 91 118 114 116 80 78 76 69 66 61 58 56
150 133 123 158 143 147 162 147 130 144 166 178 136 167 149 130 123 139 158 151 150 157 159 108 106 98 108 115 78 70 129 101 127 94 75 78 69 67 64 61 67 57 56 62
56 62 78 73 97 79 154 149 113 130 102 162 163 155 153 156 154 148 152 134 141 116 90 89 88 81 78 79 77 75 71 77 114 81 72 65 60 62 59 58 56 55 55 53
50 49 49 50 55 60 57 55 52 105 65 115 71 65 122 119 134 63 60 60 62 69 74 75 78 77 76 72 66 67 78 67 67 67 63 60 58 57 55 55 55 55 55 53
30 33 51 54 52 53 52 47 50 58 63 66 59 51 43 49 54 56 53 59 63 68 70 73 71 71 72 69 64 63 61 63 65 63 59 57 58 54 54 54 51 50 48 49
24 26 37 41 48 45 43 45 48 54 58 55 50 40 43 49 50 52 54 57 60 58 62 63 64 63 64 60 58 60 60 60 59 57 57 55 52 52 51 47 46 46 46 45
14 18 23 27 26 24 22 46 51 53 52 46 40 40 41 47 50 51 51 54 48 53 55 54 54 56 54 56 56 57 55 55 54 53 51 49 51 51 52 50 48 46 41 39
6 5 7 8 11 44 45 44 44 45 43 40 43 45 42 44 48 48 49 50 51 48 47 49 49 48 51 52 51 49 51 53 50 48 52 52 51 52 53 32 31 30 38 38
14 11 12 14 18 19 21 24 25 26 25 28 36 37 39 41 43 45 48 48 45 45 45 48 42 43 49 53 51 48 46 45 51 53 53 53 53 34 34 35 37 38 39 39
8 10 12 10 10 11 11 16 15 20 17 24 28 32 34 37 38 41 42 45 46 44 40 41 40 43 47 47 43 42 48 52 53 53 53 48 38 41 41 40 40 41 42 42
11 10 8 7 4 4 6 12 13 14 17 20 24 26 30 31 35 37 38 38 37 36 36 36 34 43 42 43 46 47 49 50 53 45 45 44 43 42 42 42 41 42 44 44
3 5 8 6 5 6 7 15 17 19 21 23 25 26 31 31 32 33 35 33 35 33 37 41 40 41 44 46 49 49 49 45 43 42 43 42 42 42 41 41 41 39 40 41
3 4 2 5 4 7 8 16 19 15 25 27 28 29 33 34 31 37 36 36 36 39 40 41 43 44 42 43 44 44 43 43 43 43 43 44 44 44 44 44 43 43 44 46
6 9 11 13 14 14 16 18 21 23 25 26 29 31 31 35 38 41 41 41 41 41 41 42 44 45 45 45 44 44 44 44 46 47 48 48 48 47 47 49 49 48 48 50
15 17 19 20 21 23 25 28 29 32 34 35 37 39 40 41 42 44 45 45 46 45 45 45 45 45 45 43 42 44 46 48 50 51 51 51 51 50 49 52 54 51 50 50
Wind_Direction
266 258 272 257 257 268 261 258 266 271 262 264 276 286 269 285 285 286 278 279 280 285 281 281 282 290 287 287 292 287 288 299 292 299 300 304 304 303 316 320 320 312 308 317
259 266 270 260 260 266 270 259 277 264 274 264 277 268 265 280 276 281 284 277 286 288 283 286 285 282 288 291 288 289 287 289 295 291 294 297 302 300 311 304 304 315 316 310
261 263 259 258 268 265 278 264 267 278 263 281 262 269 263 266 276 281 270 285 277 282 286 287 281 283 284 285 287 290 292 288 290 293 299 292 293 293 305 305 297 310 310 313
260 259 262 266 263 263 268 267 268 269 283 267 259 262 265 264 268 284 268 279 271 287 288 284 283 286 282 293 291 293 286 292 286 294 299 301 293 293 300 300 310 313 310 309
255 259 256 266 266 266 260 264 271 263 253 278 281 259 260 277 266 268 275 276 275 284 285 287 289 282 279 280 286 293 284 288 294 291 298 297 299 283 304 310 301 310 310 306
260 264 266 261 269 266 267 269 271 269 265 261 267 270 264 260 265 267 282 268 281 271 292 281 274 276 278 283 287 292 294 288 293 286 296 305 308 305 297 298 305 310 307 300
260 261 265 259 267 268 267 262 270 269 258 274 265 271 263 273 273 282 268 268 270 271 274 269 287 281 281 284 282 287 286 290 288 297 296 293 295 293 294 304 302 309 302 304
247 258 252 262 267 265 260 265 267 273 265 272 268 276 279 277 275 279 284 266 268 268 268 288 269 283 289 280 281 293 287 294 289 289 288 289 297 291 295 297 301 305 305 294
260 261 263 259 265 267 261 262 268 269 265 269 273 269 270 274 274 276 277 275 266 277 280 282 277 285 275 277 280 278 291 285 283 282 285 293 299 294 302 300 304 304 300 294
256 259 253 264 252 267 261 269 262 270 273 276 266 277 267 268 273 270 269 272 270 271 275 276 285 278 274 274 287 281 294 290 285 291 290 296 293 296 296 303 303 296 292 290
257 259 258 256 258 265 261 271 257 264 272 270 269 273 269 263 272 263 274 271 266 277 270 273 274 287 273 280 281 281 282 284 281 293 300 299 292 298 299 294 299 289 288 287
259 258 258 260 262 263 267 267 269 271 272 267 270 269 270 271 266 267 265 275 266 268 279 271 277 283 276 287 283 288 283 283 290 286 287 296 292 284 292 291 286 286 285 282
258 260 260 261 263 263 265 265 267 268 269 272 268 266 266 273 272 276 270 271 269 277 277 280 277 275 274 281 279 271 288 281 291 289 290 294 284 285 283 283 284 282 281 278
254 255 255 258 259 261 262 261 262 264 267 267 265 266 269 271 272 275 274 274 276 276 277 270 269 272 277 280 275 276 278 281 279 288 282 282 284 282 282 283 283 282 279 280
250 250 249 251 255 251 257 259 256 260 253 263 263 266 268 266 267 270 272 272 273 270 265 265 265 265 270 273 275 280 276 278 277 280 279 280 281 283 283 283 282 280 276 276
245 244 243 244 245 246 246 244 241 257 246 262 252 255 265 265 266 258 257 255 254 255 257 258 260 264 267 269 274 277 278 277 279 277 279 281 281 282 283 283 282 281 281 278
236 232 242 243 239 241 244 242 237 241 245 249 253 251 249 251 252 251 251 253 252 254 255 259 261 263 266 271 274 273 275 275 275 276 279 282 283 284 283 282 281 280 279 277
228 224 233 235 242 244 242 240 238 238 243 248 251 250 245 247 248 249 251 252 254 253 257 256 259 265 268 271 271 270 270 271 274 278 279 280 280 280 279 280 279 279 277 275
200 205 209 214 218 222 220 232 234 236 240 244 246 244 239 241 243 247 249 250 247 250 252 257 258 261 264 265 265 267 271 273 275 277 277 278 275 276 278 279 278 276 271 269
109 150 174 176 186 234 237 237 239 244 249 248 246 244 239 239 248 251 249 250 254 256 257 259 262 263 265 267 270 271 271 271 273 273 271 273 276 276 276 270 271 267 268 267
112 128 151 170 183 184 198 209 215 219 220 221 241 240 245 245 250 253 255 258 260 257 257 259 262 265 266 264 265 267 270 268 267 269 271 274 275 271 270 269 268 268 267 266
103 112 132 159 168 161 189 214 221 226 232 235 238 243 245 249 251 249 253 251 256 259 262 263 262 257 259 262 267 266 261 263 266 269 272 274 272 271 270 268 267 267 266 266
94 90 90 85 116 166 203 227 234 235 237 239 242 242 244 249 251 250 253 256 258 259 260 262 258 259 264 266 264 264 266 268 271 273 275 275 274 273 272 269 268 267 266 265
123 105 109 219 197 166 190 237 244 246 247 247 250 252 250 254 256 256 257 259 260 262 261 261 266 267 266 266 266 268 270 275 273 273 273 272 271 271 270 270 270 268 267 267
288 269 284 251 250 245 245 248 246 248 252 255 258 260 258 259 264 260 264 263 263 261 262 266 267 268 270 271 273 274 276 277 277 276 274 273 272 271 271 269 267 265 266 266
294 267 260 262 259 260 259 260 259 260 261 259 259 262 264 264 266 265 267 269 270 272 274 273 272 272 273 274 274 274 274 274 273 272 271 269 269 267 266 266 265 263 261 262
278 269 266 265 264 267 265 263 263 262 260 259 259 260 262 263 266 268 270 273 275 276 277 279 279 279 279 276 271 271 270 269 269 269 269 268 267 267 266 270 270 269 267 265